AirNav   Air Wisconsin Up To $57,000 Bonus
 
 1088 users online  

80S Lavina Airport
Lavina, Montana, USA

GOING TO LAVINA?


FAA INFORMATION EFFECTIVE 05 NOVEMBER 2020

Location

FAA Identifier: 80S
Lat/Long: 46-18-26.2000N 108-57-17.3000W
46-18.436667N 108-57.288333W
46.3072778,-108.9548056
(estimated)
Elevation: 3512 ft. / 1070.5 m (surveyed)
Variation: 15E (1985)
From city: 2 miles NW of LAVINA, MT
Time zone: UTC -7 (UTC -6 during Daylight Saving Time)
Zip code: 59046

Airport Operations

Airport use: Open to the public
Activation date: 10/1964
Control tower: no
ARTCC: SALT LAKE CITY CENTER
FSS: GREAT FALLS FLIGHT SERVICE STATION
NOTAMs facility: GTF (NOTAM-D service available)
Attendance: UNATNDD
Wind indicator: yes
Segmented circle: yes

Airport Communications

CTAF: 122.9

Nearby radio navigation aids

VOR radial/distance  VOR name  Freq  Var
BILr321/32.9BILLINGS VORTAC114.5014E

Airport Services

Parking: hangars and tiedowns
Airframe service: NONE
Powerplant service: NONE
Bottled oxygen: NONE
Bulk oxygen: NONE

Runway Information

Runway 7/25

Dimensions: 3460 x 100 ft. / 1055 x 30 m
Surface: turf, in fair condition
VERY MUDDY WHEN WET; ROUGH WITH GOPHER HOLES.
Runway edge markings: 07/25 MKD WITH CONES FULL RY LENGTH.
RUNWAY 7  RUNWAY 25
Latitude: 46-18.435335N46-18.436798N
Longitude: 108-57.699813W108-56.878188W
Elevation: 3512.0 ft.3488.0 ft.
Traffic pattern: leftleft
Runway heading: 075 magnetic, 090 true255 magnetic, 270 true

Airport Ownership and Management from official FAA records

Ownership: Publicly-owned
Owner: MONTANA AERONAUTICS DIVISION
PO BOX 200507
HELENA, MT 59620-0507
Phone 406-444-2506
Manager: TIM CONWAY
BOX 200507
HELENA, MT 59620-0507
Phone 406-444-2506

Airport Operational Statistics

Aircraft based on the field: 1
Single engine airplanes: 1
    
Aircraft operations: avg 31/month *
73% transient general aviation
27% local general aviation
* for 12-month period ending 17 July 2019

Additional Remarks

NO SNOW REMOVAL.
FOR CD CTC BILLINGS APCH AT 406-255-2798

Instrument Procedures

There are no published instrument procedures at 80S.

Some nearby airports with instrument procedures:

KRPX - Roundup Airport (20 nm NE)
KBIL - Billings Logan International Airport (35 nm SE)
6S8 - Laurel Municipal Airport (37 nm S)
KHWQ - Wheatland County Airport at Harlowton (38 nm W)
KLWT - Lewistown Municipal Airport (49 nm NW)
 
Loc | Ops | Rwys | IFR | FBO | Links
Com | Nav | Svcs | Stats | Notes
Area around 80S (Lavina Airport)
 
Road maps at: MapQuest Bing Google
 
Aerial photo
No photo
 
Sectional chart

 
Airport distance calculator
Flying to Lavina Airport? Find the distance to fly.

From to 80S

Sunrise and sunset
Times for 24-Nov-2020
 Local
(UTC-7)
 Zulu
(UTC)
Morning civil twilight06:5813:58
Sunrise07:3214:32
Sunset16:3423:34
Evening civil twilight17:0700:07

Current date and time
Zulu (UTC)  25-Nov-2020 00:30:01
Local (UTC-7)  24-Nov-2020 17:30:01
 
METAR
KMVH 
32nm N 
250015Z AUTO 24004KT 10SM CLR 00/M09 A2982 RMK AO2
KBIL 
35nm SE 
242353Z 23008KT 10SM FEW140 03/M10 A2987 RMK AO2 SLP141 ACSL DSNT SW-N T00331100 10067 20022 58005
K6S8 
37nm S 
250010Z AUTO 25008KT 10SM 02/M10 A2988 RMK A01 Laurel
TAF
KBIL 
35nm SE 
241721Z 2418/2518 24013KT P6SM FEW200 FM250200 24016G22KT P6SM SCT200
NOTAMs
Click for the latest NOTAMs
NOTAMs are issued by the DoD/FAA and will open in a separate window not controlled by AirNav.

 

 
 

Would you like to see your business listed on this page?

 If your business provides an interesting product or service to pilots, flight crews, aircraft, or users of the Lavina Airport, you should consider listing it here.  To start the listing process, click on the button below
 
Add a business
 

Other Pages about Lavina Airport

Update a link
 
Copyright © AirNav, LLC. All rights reserved. Privacy Policy  Contact